Location: Newark
(47.3150°N, 5.1150°E)
Time: 06:35:52
(UTC+00:00)

O/OREOS (USA 219) - Pass Details

Date: 22 December 2019
Orbit: 621 x 646 km, 72.0° (Epoch: 22 May)

Event Time Altitude Azimuth Distance (km) Brightness Sun altitude
Exits shadow 05:11:28 38° 224° (SW) 980 ? -21.3°
Drops below altitude 10° 05:14:54 10° 182° (S) 2,014 ? -20.8°
Sets 05:17:14 0° 175° (S) 2,912 ? -20.4°
